Location: Innsbruck
(47.2657°N, 11.3914°E)
Time: 13:02:18
(UTC+01:00)

METEOR M2 - Visible Passes

Search period start: 06 December 2021 00:00
Search period end: 16 December 2021 00:00
Orbit: 818 x 827 km, 98.4° (Epoch: 06 December)

Date Brightness Start Highest point End Pass type
(mag) Time Alt. Az. Time Alt. Az. Time Alt. Az.
06 Dec ? 06:36:16 10° NE 06:40:21 22° E 06:44:23 10° SE visible
06 Dec ? 18:01:27 10° SE 18:06:34 46° ENE 18:11:41 10° N visible
06 Dec ? 19:42:21 10° SSW 19:46:55 28° W 19:51:31 10° NW visible
07 Dec ? 06:17:13 10° NE 06:20:09 15° E 06:23:04 10° ESE visible
07 Dec ? 17:42:02 10° SE 17:46:47 33° ENE 17:51:32 10° N visible
07 Dec ? 19:21:49 10° SSW 19:26:51 40° W 19:31:54 10° NNW visible
08 Dec ? 17:22:51 10° ESE 17:27:03 24° ENE 17:31:15 10° N visible
08 Dec ? 19:01:32 10° S 19:06:49 59° W 19:12:09 10° NNW visible
09 Dec ? 17:03:59 10° E 17:07:23 17° ENE 17:10:46 10° NNE visible
09 Dec ? 18:41:29 10° SSE 18:46:52 85° WSW 18:52:17 10° NNW visible
09 Dec ? 20:25:34 10° WSW 20:27:50 13° W 20:30:08 10° WNW visible
10 Dec ? 06:56:15 10° NNE 07:01:02 32° E 07:05:46 10° SSE visible
10 Dec ? 18:21:38 10° SSE 18:26:58 68° ENE 18:32:19 10° N visible
10 Dec ? 20:03:55 10° SW 20:07:38 19° W 20:11:23 10° NW visible
11 Dec ? 06:36:47 10° NE 06:40:54 22° E 06:45:00 10° SE visible
11 Dec ? 18:02:00 10° SE 18:07:07 47° ENE 18:12:15 10° N visible
11 Dec ? 19:42:59 10° SSW 19:47:30 27° W 19:52:03 10° NW visible
12 Dec ? 06:17:42 10° NE 06:20:44 15° E 06:23:44 10° ESE visible
12 Dec ? 17:42:34 10° SE 17:47:20 33° ENE 17:52:06 10° N visible
12 Dec ? 19:22:24 10° SSW 19:27:25 39° W 19:32:27 10° NNW visible
13 Dec ? 17:23:22 10° ESE 17:27:36 24° ENE 17:31:50 10° N visible
13 Dec ? 19:02:07 10° S 19:07:24 57° W 19:12:42 10° NNW visible
14 Dec ? 07:16:28 10° NNE 07:21:39 47° E 07:26:47 10° S visible
14 Dec ? 17:04:29 10° E 17:07:55 18° ENE 17:11:22 10° NNE visible
14 Dec ? 18:42:03 10° SSE 18:47:26 83° WSW 18:52:50 10° NNW visible
14 Dec ? 20:26:18 10° WSW 20:28:26 12° W 20:30:33 10° WNW visible
15 Dec ? 06:56:47 10° NNE 07:01:36 33° E 07:06:22 10° SSE visible
15 Dec ? 18:22:12 10° SSE 18:27:32 69° ENE 18:32:53 10° N visible
15 Dec ? 20:04:34 10° SW 20:08:13 18° W 20:11:53 10° NW visible
